, CO

(GMT )
Cottonwood Pass

Weather History for K7BM - September, 2014

Change the Weather History Date:

Wednesday, September 3, 2014

  Actual Average Record
Temperature  
Mean Temperature 68 °F -  
Max Temperature 77 °F - - ()
Min Temperature 59 °F - - ()
Cooling Degree Days 3    
Growing Degree Days 18 (Base 50)    
Moisture  
Dew Point 20 °F    
Average Humidity 18    
Maximum Humidity 29    
Minimum Humidity 6    
Precipitation  
Precipitation 0.00 in - - ()
Sea Level Pressure  
Sea Level Pressure 30.31 in    
Wind  
Wind Speed 6 mph (WSW)    
Max Wind Speed 21 mph    
Max Gust Speed 34 mph    
Visibility 10 miles    
Events      
T = Trace of Precipitation, MM = Missing Value Source: NWS Daily Summary

Daily Weather History Graph

Daily Weather History Graph

Search for Another Location

Airport or City:

Trip Planner

Search our weather history database for the weather conditions in past years. The results will help you decide how hot, cold, wet, or windy it might be!

Date:

Astronomy

Sep. 03, 2014 Rise Set
Actual Time 6:35 AM MDT 7:31 PM MDT
Civil Twilight 6:08 AM MDT 7:59 PM MDT
Nautical Twilight 5:36 AM MDT 8:31 PM MDT
Astronomical Twilight 5:02 AM MDT 9:04 PM MDT
Moon 3:14 PM MDT (9/3) 12:34 AM MDT (9/3)
Length of Visible Light 13h 50m
Length of Day
12h 56m
Waxing Gibbous, 64% of the Moon is Illuminated
Sep 3
Waxing Gibbous
Sep 8
Full
Sep 15
Last Quarter
Sep 24
New
Oct 1
First Quarter

Hourly Weather History & Observations

Time (MDT) Temp. Dew Point Humidity Pressure Visibility Wind Dir Wind Speed Gust Speed Precip Events Conditions
12:14 AM 62.6 °F 23.0 °F 22% 30.35 in 10.0 mi West 4.6 mph - N/A   Clear
12:34 AM 62.6 °F 23.0 °F 22% 30.35 in 10.0 mi WSW 8.1 mph - N/A   Clear
12:54 AM 62.6 °F 24.8 °F 24% 30.34 in 10.0 mi West 4.6 mph - N/A   Clear
1:14 AM 62.6 °F 24.8 °F 24% 30.33 in 10.0 mi WSW 8.1 mph - N/A   Clear
1:34 AM 62.6 °F 24.8 °F 24% 30.33 in 10.0 mi Calm Calm - N/A   Clear
1:54 AM 62.6 °F 23.0 °F 22% 30.33 in 10.0 mi Calm Calm - N/A   Clear
2:14 AM 62.6 °F 23.0 °F 22% 30.33 in 10.0 mi Calm Calm - N/A   Clear
2:33 AM 60.8 °F 23.0 °F 23% 30.33 in 10.0 mi Calm Calm - N/A   Clear
2:54 AM 60.8 °F 23.0 °F 23% 30.33 in 10.0 mi SW 5.8 mph - N/A   Clear
3:13 AM 60.8 °F 23.0 °F 23% 30.33 in 10.0 mi Calm Calm - N/A   Clear
3:33 AM 60.8 °F 23.0 °F 23% 30.33 in 10.0 mi South 4.6 mph - N/A   Clear
3:54 AM 60.8 °F 21.2 °F 22% 30.33 in 10.0 mi Calm Calm - N/A   Clear
4:14 AM 60.8 °F 23.0 °F 23% 30.31 in 10.0 mi ESE 8.1 mph - N/A   Clear
4:34 AM 60.8 °F 21.2 °F 22% 30.33 in 10.0 mi Calm Calm - N/A   Clear
4:54 AM 59.0 °F 24.8 °F 27% 30.32 in 10.0 mi ESE 9.2 mph - N/A   Clear
5:14 AM 59.0 °F 24.8 °F 27% 30.32 in 10.0 mi Calm Calm - N/A   Clear
5:34 AM 59.0 °F 24.8 °F 27% 30.31 in 10.0 mi East 4.6 mph - N/A   Clear
5:54 AM 59.0 °F 24.8 °F 27% 30.32 in 10.0 mi SSE 5.8 mph - N/A   Clear
6:14 AM 59.0 °F 24.8 °F 27% 30.32 in 10.0 mi South 3.5 mph - N/A   Clear
6:33 AM 59.0 °F 24.8 °F 27% 30.32 in 10.0 mi SE 3.5 mph - N/A   Clear
6:54 AM 59.0 °F 24.8 °F 27% 30.32 in 10.0 mi South 3.5 mph - N/A   Clear
7:14 AM 59.0 °F 26.6 °F 29% 30.33 in 10.0 mi SSE 3.5 mph - N/A   Clear
7:34 AM 59.0 °F 26.6 °F 29% 30.33 in 10.0 mi Calm Calm - N/A   Clear
7:54 AM 60.8 °F 26.6 °F 27% 30.33 in 10.0 mi SE 4.6 mph - N/A   Clear
8:14 AM 60.8 °F 26.6 °F 27% 30.33 in 10.0 mi ESE 5.8 mph - N/A   Clear
8:34 AM 62.6 °F 26.6 °F 26% 30.33 in 10.0 mi SE 5.8 mph - N/A   Clear
8:54 AM 64.4 °F 26.6 °F 24% 30.33 in 10.0 mi SSE 5.8 mph - N/A   Clear
9:14 AM 64.4 °F 28.4 °F 26% 30.33 in 10.0 mi SW 3.5 mph - N/A   Clear
9:34 AM 68.0 °F 26.6 °F 21% 30.34 in 10.0 mi SW 3.5 mph 16.1 mph N/A   Clear
9:54 AM 68.0 °F 26.6 °F 21% 30.33 in 10.0 mi Calm Calm - N/A   Clear
10:14 AM 68.0 °F 23.0 °F 18% 30.34 in 10.0 mi NNW 5.8 mph 23.0 mph N/A   Clear
10:34 AM 69.8 °F 23.0 °F 17% 30.33 in 10.0 mi WSW 10.4 mph 19.6 mph N/A   Clear
10:54 AM 69.8 °F 21.2 °F 16% 30.33 in 10.0 mi West 10.4 mph 24.2 mph N/A   Clear
11:14 AM 71.6 °F 21.2 °F 15% 30.34 in 10.0 mi SW 5.8 mph - N/A   Clear
11:34 AM 71.6 °F 21.2 °F 15% 30.33 in 10.0 mi WSW 9.2 mph - N/A   Clear
11:54 AM 71.6 °F 17.6 °F 13% 30.32 in 10.0 mi SSW 12.7 mph 33.4 mph N/A   Clear
12:14 PM 71.6 °F 15.8 °F 12% 30.32 in 10.0 mi WSW 17.3 mph 27.6 mph N/A   Clear
12:33 PM 69.8 °F 15.8 °F 13% 30.32 in 10.0 mi West 17.3 mph 33.4 mph N/A   Clear
12:54 PM 71.6 °F 12.2 °F 10% 30.31 in 10.0 mi NW 9.2 mph 31.1 mph N/A   Clear
1:14 PM 73.4 °F 12.2 °F 10% 30.31 in 10.0 mi West 11.5 mph 27.6 mph N/A   Clear
1:34 PM 73.4 °F 8.6 °F 8% 30.31 in 10.0 mi West 19.6 mph 32.2 mph N/A   Clear
1:54 PM 71.6 °F 5.0 °F 7% 30.30 in 10.0 mi West 19.6 mph 32.2 mph N/A   Clear
2:14 PM 75.2 °F 3.2 °F 6% 30.29 in 10.0 mi West 20.7 mph 34.5 mph N/A   Clear
2:34 PM 73.4 °F 3.2 °F 6% 30.29 in 10.0 mi West 8.1 mph 24.2 mph N/A   Clear
2:54 PM 75.2 °F 6.8 °F 7% 30.28 in 10.0 mi SW 11.5 mph 25.3 mph N/A   Clear
3:13 PM 73.4 °F 8.6 °F 8% 30.28 in 10.0 mi WSW 11.5 mph 27.6 mph N/A   Clear
3:34 PM 73.4 °F 6.8 °F 8% 30.27 in 10.0 mi West 6.9 mph 23.0 mph N/A   Clear
3:54 PM 75.2 °F 8.6 °F 8% 30.26 in 10.0 mi SW 13.8 mph 24.2 mph N/A   Clear
4:14 PM 75.2 °F 8.6 °F 8% 30.26 in 10.0 mi West 16.1 mph 24.2 mph N/A   Scattered Clouds
4:34 PM 77.0 °F 8.6 °F 7% 30.26 in 10.0 mi West 16.1 mph 23.0 mph N/A   Scattered Clouds
4:54 PM 77.0 °F 10.4 °F 8% 30.26 in 10.0 mi WSW 10.4 mph 18.4 mph N/A   Scattered Clouds
5:14 PM 77.0 °F 10.4 °F 8% 30.26 in 10.0 mi WNW 9.2 mph 16.1 mph N/A   Scattered Clouds
5:34 PM 73.4 °F 14.0 °F 10% 30.26 in 10.0 mi West 6.9 mph 21.9 mph N/A   Clear
5:54 PM 73.4 °F 17.6 °F 12% 30.26 in 10.0 mi WNW 3.5 mph - N/A   Clear
6:14 PM 71.6 °F 19.4 °F 14% 30.26 in 10.0 mi WNW 3.5 mph - N/A   Clear
6:34 PM 71.6 °F 19.4 °F 14% 30.25 in 10.0 mi SSW 8.1 mph - N/A   Clear
6:54 PM 71.6 °F 19.4 °F 14% 30.26 in 10.0 mi WSW 4.6 mph 18.4 mph N/A   Clear
7:14 PM 69.8 °F 19.4 °F 15% 30.26 in 10.0 mi WNW 3.5 mph - N/A   Clear
7:34 PM 69.8 °F 19.4 °F 15% 30.26 in 10.0 mi WNW 4.6 mph - N/A   Clear
7:54 PM 68.0 °F 21.2 °F 17% 30.27 in 10.0 mi West 5.8 mph - N/A   Clear
8:13 PM 68.0 °F 21.2 °F 17% 30.27 in 10.0 mi WSW 5.8 mph - N/A   Clear
8:33 PM 68.0 °F 21.2 °F 17% 30.28 in 10.0 mi West 4.6 mph - N/A   Clear
8:54 PM 64.4 °F 23.0 °F 21% 30.29 in 10.0 mi North 3.5 mph - N/A   Clear
9:14 PM 64.4 °F 23.0 °F 21% 30.29 in 10.0 mi NW 3.5 mph - N/A   Scattered Clouds
9:54 PM 62.6 °F 24.8 °F 24% 30.30 in 10.0 mi WNW 4.6 mph - N/A   Scattered Clouds
10:14 PM 64.4 °F 23.0 °F 21% 30.31 in 10.0 mi West 8.1 mph - N/A   Clear
10:34 PM 64.4 °F 23.0 °F 21% 30.31 in 10.0 mi WSW 9.2 mph - N/A   Clear
10:53 PM 64.4 °F 23.0 °F 21% 30.31 in 10.0 mi West 8.1 mph - N/A   Clear
11:14 PM 62.6 °F 23.0 °F 22% 30.31 in 10.0 mi West 6.9 mph - N/A   Clear
11:34 PM 64.4 °F 23.0 °F 21% 30.30 in 10.0 mi West 12.7 mph - N/A   Clear
11:53 PM 62.6 °F 23.0 °F 22% 30.30 in 10.0 mi West 13.8 mph - N/A   Clear